This is the latest recevied weather packets stored in our database for station/object PA3BWK. If no packets are shown the sender has not sent any weather packets the latest 10 day(s).
| Time | Temp. | Humidity | Pressure | Rain* | Wind** | Luminosity | Snow |
|---|---|---|---|---|---|---|---|
| 1777300371 | 15.56° C | 49% | 1024 hPa | 0 mm | - | 441 W/m² | - |
| 1777300313 | 15.56° C | 46% | 1023.9 hPa | 0 mm | - | 485 W/m² | - |
| 1777300252 | 15.56° C | 46% | 1024 hPa | 0 mm | - | 448 W/m² | - |
| 1777300191 | 15.56° C | 47% | 1024 hPa | 0 mm | - | 440 W/m² | - |
| 1777300131 | 15.56° C | 48% | 1024 hPa | 0 mm | - | 412 W/m² | - |
| 1777300072 | 15.56° C | 47% | 1024 hPa | 0 mm | - | 422 W/m² | - |
| 1777300012 | 15.56° C | 47% | 1024 hPa | 0 mm | - | 401 W/m² | - |
| 1777299953 | 15.56° C | 47% | 1024 hPa | 0 mm | - | 410 W/m² | - |
| 1777299891 | 15.56° C | 47% | 1024.1 hPa | 0 mm | - | 452 W/m² | - |
| 1777299831 | 15.56° C | 48% | 1024.1 hPa | 0 mm | - | 461 W/m² | - |
| 1777299771 | 15.56° C | 47% | 1024 hPa | 0 mm | - | 448 W/m² | - |
| 1777299713 | 15.56° C | 47% | 1024.1 hPa | 0 mm | - | 424 W/m² | - |
| 1777299653 | 15.56° C | 49% | 1024.1 hPa | 0 mm | - | 345 W/m² | - |
| 1777299591 | 15.56° C | 48% | 1024.1 hPa | 0 mm | - | 296 W/m² | - |
| 1777299531 | 15.56° C | 48% | 1024.1 hPa | 0 mm | - | 296 W/m² | - |
| 1777299473 | 15.56° C | 47% | 1024.1 hPa | 0 mm | - | 285 W/m² | - |
| 1777299412 | 15.56° C | 47% | 1024.1 hPa | 0 mm | - | 276 W/m² | - |
| 1777299351 | 15.56° C | 47% | 1024.1 hPa | 0 mm | - | 273 W/m² | - |
| 1777299291 | 15.56° C | 48% | 1024.2 hPa | 0 mm | - | 273 W/m² | - |
| 1777299231 | 15.56° C | 49% | 1024.1 hPa | 0 mm | - | 281 W/m² | - |
| 1777299171 | 15.56° C | 48% | 1024.2 hPa | 0 mm | - | 301 W/m² | - |
| 1777299114 | 15.56° C | 48% | 1024.1 hPa | 0 mm | - | 294 W/m² | - |
| 1777299052 | 15.56° C | 48% | 1024.1 hPa | 0 mm | - | 292 W/m² | - |
| 1777298991 | 15.56° C | 49% | 1024.2 hPa | 0 mm | - | 292 W/m² | - |
| 1777298933 | 15.56° C | 48% | 1024.1 hPa | 0 mm | - | 308 W/m² | - |
* Rain latest hour (hover to see other rain measurements)
** Current wind speed in m/s (hover to see current wind gust speed)